When you browse on this site, cookies collect data to enhance your experience and personalize the content and advertising you see.
Visit our Privacy Policy to learn more. By continuing to use the site, you agree to this use of cookies and data.

Tiempo cada hora Mazatenango

Hoy, 25 Septiembre, Viernes

Tiempo Temperatura Precipitaciones Viento Presión Humedad
00:00 +25°C° 0 mm 1 mps 727 mmHg 94%
01:00 +24°C° 0.3 mm 1 mps 727 mmHg 93%
02:00 +24°C° 0.3 mm 1 mps 727 mmHg 93%
03:00 +24°C° 0.3 mm 1 mps 726 mmHg 93%
04:00 +24°C° 0.1 mm 1 mps 726 mmHg 92%
05:00 +24°C° 0.1 mm 1 mps 727 mmHg 91%
06:00 +24°C° 0 mm 1 mps 727 mmHg 91%
07:00 +25°C° 0.3 mm 1 mps 727 mmHg 89%
08:00 +26°C° 0.3 mm 1 mps 728 mmHg 87%
09:00 +25°C° 0.3 mm 0 mps 728 mmHg 85%
10:00 +26°C° 0.2 mm 0 mps 728 mmHg 82%
11:00 +29°C° 0.2 mm 1 mps 727 mmHg 79%
12:00 +30°C° 0.2 mm 1 mps 727 mmHg 75%
13:00 +29°C° 0.7 mm 1 mps 727 mmHg 78%
14:00 +29°C° 0.7 mm 1 mps 726 mmHg 81%
15:00 +29°C° 0.7 mm 2 mps 725 mmHg 84%
16:00 +28°C° 0.8 mm 1 mps 726 mmHg 87%
17:00 +27°C° 0.8 mm 1 mps 726 mmHg 90%
18:00 +24°C° 0.8 mm 0 mps 726 mmHg 94%
19:00 +24°C° 0.3 mm 0 mps 726 mmHg 94%
20:00 +25°C° 0.3 mm 1 mps 727 mmHg 93%
21:00 +25°C° 0.3 mm 1 mps 727 mmHg 93%
22:00 +25°C° 0.2 mm 1 mps 727 mmHg 92%
23:00 +25°C° 0.2 mm 1 mps 727 mmHg 92%

Mañana, 26 Septiembre, Sábado

Tiempo Temperatura Precipitaciones Viento Presión Humedad
00:00 +24°C° 0.2 mm 1 mps 727 mmHg 91%
01:00 +24°C° 0.6 mm 1 mps 727 mmHg 92%
02:00 +24°C° 0.6 mm 1 mps 727 mmHg 92%
03:00 +24°C° 0.6 mm 1 mps 726 mmHg 93%
04:00 +24°C° 0.1 mm 1 mps 726 mmHg 92%
05:00 +24°C° 0.1 mm 1 mps 726 mmHg 92%
06:00 +24°C° 0.1 mm 1 mps 726 mmHg 91%
07:00 +25°C° 0 mm 1 mps 727 mmHg 88%
08:00 +27°C° 0 mm 1 mps 727 mmHg 85%
09:00 +26°C° 0 mm 0 mps 728 mmHg 82%
10:00 +29°C° 0.2 mm 1 mps 727 mmHg 77%
11:00 +30°C° 0.2 mm 1 mps 727 mmHg 73%
12:00 +31°C° 0.2 mm 2 mps 727 mmHg 69%
13:00 +31°C° 1.2 mm 1 mps 726 mmHg 75%
14:00 +30°C° 1.2 mm 1 mps 725 mmHg 81%
15:00 +29°C° 1.2 mm 1 mps 724 mmHg 87%
16:00 +26°C° 1.5 mm 0 mps 725 mmHg 89%
17:00 +25°C° 1.5 mm 0 mps 725 mmHg 92%
18:00 +24°C° 1.5 mm 0 mps 725 mmHg 94%
19:00 +24°C° 0.2 mm 0 mps 726 mmHg 95%
20:00 +25°C° 0.2 mm 1 mps 726 mmHg 95%
21:00 +25°C° 0.2 mm 1 mps 727 mmHg 95%
22:00 +25°C° 0.2 mm 1 mps 727 mmHg 94%
23:00 +24°C° 0.2 mm 1 mps 727 mmHg 93%

Pasado mañana, 27 Septiembre, Domingo

Tiempo Temperatura Precipitaciones Viento Presión Humedad
00:00 +24°C° 0.2 mm 1 mps 726 mmHg 92%
01:00 +24°C° 0.2 mm 1 mps 726 mmHg 92%
02:00 +24°C° 0.2 mm 2 mps 726 mmHg 91%
03:00 +23°C° 0.2 mm 2 mps 725 mmHg 90%
04:00 +23°C° 0 mm 2 mps 725 mmHg 89%
05:00 +23°C° 0 mm 2 mps 725 mmHg 88%
06:00 +23°C° 0 mm 2 mps 725 mmHg 87%
07:00 +26°C° 0 mm 1 mps 726 mmHg 80%
08:00 +28°C° 0 mm 1 mps 726 mmHg 73%
09:00 +31°C° 0 mm 1 mps 727 mmHg 66%
10:00 +31°C° 0.3 mm 1 mps 726 mmHg 67%
11:00 +31°C° 0.3 mm 1 mps 726 mmHg 68%
12:00 +32°C° 0.3 mm 2 mps 725 mmHg 69%
13:00 +31°C° 1.7 mm 2 mps 725 mmHg 75%
14:00 +30°C° 1.7 mm 1 mps 724 mmHg 80%
15:00 +29°C° 1.7 mm 1 mps 724 mmHg 85%
16:00 +28°C° 2.6 mm 1 mps 724 mmHg 88%
17:00 +25°C° 2.6 mm 0 mps 724 mmHg 91%
18:00 +24°C° 2.6 mm 0 mps 724 mmHg 93%
19:00 +24°C° 1.4 mm 0 mps 724 mmHg 93%
20:00 +25°C° 1.4 mm 1 mps 725 mmHg 93%
21:00 +25°C° 1.4 mm 1 mps 726 mmHg 93%
22:00 +25°C° 0.9 mm 1 mps 726 mmHg 93%
23:00 +24°C° 0.9 mm 1 mps 726 mmHg 92%

28 Septiembre, Lunes

Tiempo Temperatura Precipitaciones Viento Presión Humedad
00:00 +24°C° 0.9 mm 2 mps 726 mmHg 91%
01:00 +24°C° 0.1 mm 2 mps 725 mmHg 90%
02:00 +23°C° 0.1 mm 2 mps 724 mmHg 89%
03:00 +23°C° 0.1 mm 2 mps 724 mmHg 88%
04:00 +23°C° 0 mm 2 mps 724 mmHg 86%
05:00 +23°C° 0 mm 2 mps 724 mmHg 84%
06:00 +23°C° 0 mm 2 mps 724 mmHg 82%
07:00 +25°C° 0 mm 1 mps 725 mmHg 76%
08:00 +28°C° 0 mm 1 mps 725 mmHg 70%
09:00 +28°C° 0 mm 0 mps 726 mmHg 65%
10:00 +31°C° 0.1 mm 1 mps 725 mmHg 65%
11:00 +31°C° 0.1 mm 2 mps 725 mmHg 64%
12:00 +32°C° 0.1 mm 2 mps 725 mmHg 64%
13:00 +31°C° 2 mm 2 mps 724 mmHg 72%
14:00 +30°C° 2 mm 1 mps 724 mmHg 79%
15:00 +29°C° 2 mm 1 mps 723 mmHg 86%
16:00 +26°C° 1.3 mm 0 mps 723 mmHg 88%
17:00 +25°C° 1.3 mm 0 mps 723 mmHg 90%
18:00 +24°C° 1.3 mm 0 mps 724 mmHg 93%
19:00 +23°C° 0.4 mm 0 mps 724 mmHg 92%
20:00 +25°C° 0.4 mm 1 mps 725 mmHg 92%
21:00 +24°C° 0.4 mm 1 mps 726 mmHg 92%
22:00 +24°C° 0 mm 1 mps 726 mmHg 91%
23:00 +24°C° 0 mm 2 mps 725 mmHg 90%

29 Septiembre, Martes

Tiempo Temperatura Precipitaciones Viento Presión Humedad
00:00 +23°C° 0 mm 2 mps 725 mmHg 89%
01:00 +23°C° 0 mm 2 mps 725 mmHg 88%
02:00 +23°C° 0 mm 2 mps 725 mmHg 87%
03:00 +23°C° 0 mm 2 mps 725 mmHg 85%
04:00 +23°C° 0 mm 2 mps 725 mmHg 83%
05:00 +23°C° 0 mm 2 mps 725 mmHg 81%
06:00 +23°C° 0 mm 1 mps 725 mmHg 79%
07:00 +26°C° 0 mm 1 mps 725 mmHg 74%
08:00 +28°C° 0 mm 1 mps 726 mmHg 69%
09:00 +30°C° 0 mm 1 mps 726 mmHg 64%
10:00 +31°C° 0.1 mm 1 mps 726 mmHg 64%
11:00 +31°C° 0.1 mm 1 mps 725 mmHg 64%
12:00 +32°C° 0.1 mm 2 mps 725 mmHg 63%
13:00 +31°C° 2.1 mm 2 mps 724 mmHg 71%
14:00 +30°C° 2.1 mm 2 mps 723 mmHg 79%
15:00 +29°C° 2.1 mm 2 mps 723 mmHg 87%
16:00 +27°C° 4.7 mm 2 mps 723 mmHg 90%
17:00 +26°C° 4.7 mm 2 mps 724 mmHg 94%
18:00 +25°C° 4.7 mm 2 mps 724 mmHg 97%
19:00 +25°C° 1.7 mm 1 mps 725 mmHg 96%
20:00 +24°C° 1.7 mm 1 mps 725 mmHg 95%
21:00 +24°C° 1.7 mm 1 mps 726 mmHg 93%
22:00 +24°C° 0.7 mm 1 mps 726 mmHg 92%
23:00 +24°C° 0.7 mm 2 mps 726 mmHg 91%

30 Septiembre, Miércoles

Tiempo Temperatura Precipitaciones Viento Presión Humedad
00:00 +23°C° 0.7 mm 2 mps 726 mmHg 90%
01:00 +23°C° 0.1 mm 2 mps 726 mmHg 89%
02:00 +23°C° 0.1 mm 2 mps 725 mmHg 88%
03:00 +23°C° 0.1 mm 2 mps 725 mmHg 87%
04:00 +23°C° 0 mm 2 mps 725 mmHg 85%
05:00 +23°C° 0 mm 2 mps 725 mmHg 84%
06:00 +23°C° 0 mm 2 mps 726 mmHg 82%
07:00 +25°C° 0 mm 2 mps 726 mmHg 79%
08:00 +26°C° 0 mm 2 mps 727 mmHg 76%
09:00 +28°C° 0 mm 2 mps 727 mmHg 73%
10:00 +29°C° 0.2 mm 2 mps 727 mmHg 71%
11:00 +30°C° 0.2 mm 2 mps 726 mmHg 70%
12:00 +31°C° 0.2 mm 1 mps 726 mmHg 69%
13:00 +30°C° 0.6 mm 2 mps 725 mmHg 73%
14:00 +30°C° 0.6 mm 2 mps 724 mmHg 76%
15:00 +30°C° 0.6 mm 2 mps 724 mmHg 79%
16:00 +28°C° 0.8 mm 2 mps 724 mmHg 84%
17:00 +27°C° 0.8 mm 1 mps 724 mmHg 88%
18:00 +26°C° 0.8 mm 1 mps 725 mmHg 93%
19:00 +25°C° 3.3 mm 1 mps 725 mmHg 94%
20:00 +25°C° 3.3 mm 2 mps 726 mmHg 94%
21:00 +24°C° 3.3 mm 2 mps 727 mmHg 95%
22:00 +24°C° 0.1 mm 2 mps 726 mmHg 93%
23:00 +24°C° 0.1 mm 1 mps 726 mmHg 92%
Mostrar más